User: anonymous
Location: Hickory_CSC
(35.7330°N, 81.3330°W)
Time: 00:00:15
(UTC-04:00)
Language:

Cosmos 1356 Rocket - Orbit

View from above orbital plane
View from above orbital plane
View from above satellite
View from above satellite

Ground track
Ground track

The orbit data is extracted from the following two-line orbital elements,

1 13154U 82039B   14273.44377250  .00003269  00000-0  28282-3 0  4120
2 13154 081.1826 267.8971 0040502 273.5790 086.0796 14.96308021755441
Epoch (UTC): 30 September 2014 10:39:01
Eccentricity: 0.0040502
inclination: 81.1826°
perigee height: 550 km
apogee height: 606 km
right ascension of ascending node: 267.8971°
argument of perigee: 273.5790°
revolutions per day: 14.96308021
mean anomaly at epoch: 86.0796°
orbit number at epoch: 75544

The dashed part of the orbit path shows where the satellite is in the earth's shadow,  

DLR